Hourly Weather Dzielce

Today, 12 May, Wednesday

Time Temperature Precipitation Wind Pressure Humidity
00:00 +13°C° 0 mm 5 mps 740 mmHg 70%
01:00 +13°C° 0 mm 5 mps 740 mmHg 70%
02:00 +12°C° 0 mm 5 mps 739 mmHg 72%
03:00 +12°C° 0 mm 5 mps 739 mmHg 74%
04:00 +12°C° 0 mm 5 mps 739 mmHg 76%
05:00 +10°C° 0 mm 5 mps 739 mmHg 78%
06:00 +13°C° 0 mm 5 mps 739 mmHg 76%
07:00 +15°C° 0 mm 6 mps 739 mmHg 73%
08:00 +16°C° 0 mm 6 mps 738 mmHg 71%
09:00 +18°C° 0 mm 7 mps 738 mmHg 67%
10:00 +20°C° 0 mm 7 mps 738 mmHg 63%
11:00 +21°C° 0 mm 8 mps 738 mmHg 58%
12:00 +22°C° 0 mm 8 mps 738 mmHg 58%
13:00 +22°C° 0 mm 8 mps 738 mmHg 57%
14:00 +22°C° 0 mm 8 mps 738 mmHg 56%
15:00 +21°C° 0 mm 8 mps 738 mmHg 61%
16:00 +20°C° 0 mm 8 mps 738 mmHg 66%
17:00 +17°C° 0 mm 8 mps 738 mmHg 71%
18:00 +16°C° 0 mm 7 mps 737 mmHg 72%
19:00 +14°C° 0 mm 6 mps 737 mmHg 73%
20:00 +13°C° 0 mm 5 mps 737 mmHg 74%
21:00 +11°C° 0 mm 6 mps 737 mmHg 75%
22:00 +10°C° 0 mm 6 mps 737 mmHg 77%
23:00 +9°C° 0 mm 6 mps 737 mmHg 79%

Tomorrow, 13 May, Thursday

Time Temperature Precipitation Wind Pressure Humidity
00:00 +8°C° 0 mm 5 mps 736 mmHg 81%
01:00 +7°C° 0 mm 5 mps 736 mmHg 84%
02:00 +7°C° 0 mm 4 mps 735 mmHg 86%
03:00 +6°C° 0 mm 5 mps 735 mmHg 87%
04:00 +6°C° 0 mm 5 mps 734 mmHg 88%
05:00 +5°C° 0 mm 5 mps 734 mmHg 90%
06:00 +7°C° 0 mm 5 mps 734 mmHg 84%
07:00 +8°C° 0 mm 5 mps 733 mmHg 79%
08:00 +10°C° 0 mm 6 mps 733 mmHg 74%
09:00 +12°C° 0 mm 5 mps 733 mmHg 74%
10:00 +12°C° 0 mm 5 mps 733 mmHg 74%
11:00 +13°C° 0 mm 5 mps 732 mmHg 74%
12:00 +13°C° 0 mm 4 mps 732 mmHg 75%
13:00 +13°C° 0 mm 4 mps 732 mmHg 76%
14:00 +13°C° 0 mm 4 mps 731 mmHg 77%
15:00 +14°C° 0.2 mm 3 mps 731 mmHg 78%
16:00 +16°C° 0.2 mm 3 mps 731 mmHg 78%
17:00 +16°C° 0.2 mm 3 mps 731 mmHg 79%
18:00 +14°C° 0.2 mm 3 mps 731 mmHg 82%
19:00 +13°C° 0.2 mm 3 mps 730 mmHg 85%
20:00 +13°C° 0.2 mm 3 mps 730 mmHg 89%
21:00 +12°C° 0 mm 3 mps 730 mmHg 90%
22:00 +12°C° 0 mm 3 mps 730 mmHg 91%
23:00 +12°C° 0 mm 2 mps 730 mmHg 92%

Day after tomorrow, 14 May, Friday

Time Temperature Precipitation Wind Pressure Humidity
00:00 +11°C° 0.2 mm 3 mps 730 mmHg 94%
01:00 +11°C° 0.2 mm 4 mps 730 mmHg 95%
02:00 +10°C° 0.2 mm 5 mps 730 mmHg 96%
03:00 +10°C° 0.5 mm 5 mps 731 mmHg 96%
04:00 +10°C° 0.5 mm 5 mps 731 mmHg 96%
05:00 +10°C° 0.5 mm 5 mps 731 mmHg 96%
06:00 +10°C° 0.2 mm 5 mps 731 mmHg 96%
07:00 +10°C° 0.2 mm 5 mps 732 mmHg 95%
08:00 +10°C° 0.2 mm 5 mps 732 mmHg 94%
09:00 +10°C° 0 mm 5 mps 733 mmHg 93%
10:00 +12°C° 0 mm 5 mps 733 mmHg 91%
11:00 +12°C° 0 mm 4 mps 734 mmHg 89%
12:00 +12°C° 0.1 mm 5 mps 734 mmHg 88%
13:00 +12°C° 0.1 mm 5 mps 734 mmHg 87%
14:00 +13°C° 0.1 mm 5 mps 735 mmHg 86%
15:00 +13°C° 0.1 mm 5 mps 735 mmHg 83%
16:00 +13°C° 0.1 mm 5 mps 735 mmHg 81%
17:00 +13°C° 0.1 mm 5 mps 736 mmHg 78%
18:00 +12°C° 0 mm 4 mps 736 mmHg 81%
19:00 +11°C° 0 mm 4 mps 736 mmHg 83%
20:00 +10°C° 0 mm 3 mps 736 mmHg 85%
21:00 +10°C° 0 mm 3 mps 737 mmHg 89%
22:00 +9°C° 0 mm 3 mps 737 mmHg 93%
23:00 +8°C° 0 mm 3 mps 737 mmHg 97%

15 May, Saturday

Time Temperature Precipitation Wind Pressure Humidity
00:00 +8°C° 0 mm 3 mps 737 mmHg 96%
01:00 +8°C° 0 mm 3 mps 737 mmHg 96%
02:00 +8°C° 0 mm 3 mps 737 mmHg 95%
03:00 +7°C° 0 mm 2 mps 737 mmHg 95%
04:00 +7°C° 0 mm 2 mps 737 mmHg 95%
05:00 +7°C° 0 mm 2 mps 737 mmHg 95%
06:00 +9°C° 0 mm 2 mps 737 mmHg 90%
07:00 +10°C° 0 mm 3 mps 738 mmHg 85%
08:00 +12°C° 0 mm 3 mps 738 mmHg 80%
09:00 +13°C° 0 mm 3 mps 738 mmHg 75%
10:00 +14°C° 0 mm 3 mps 738 mmHg 70%
11:00 +17°C° 0 mm 3 mps 738 mmHg 65%
12:00 +17°C° 0.1 mm 2 mps 738 mmHg 62%
13:00 +18°C° 0.1 mm 2 mps 738 mmHg 60%
14:00 +18°C° 0.1 mm 2 mps 738 mmHg 57%
15:00 +18°C° 0.2 mm 2 mps 737 mmHg 58%
16:00 +19°C° 0.2 mm 1 mps 737 mmHg 59%
17:00 +19°C° 0.2 mm 1 mps 737 mmHg 60%
18:00 +18°C° 0.1 mm 1 mps 737 mmHg 68%
19:00 +15°C° 0.1 mm 2 mps 737 mmHg 75%
20:00 +14°C° 0.1 mm 2 mps 737 mmHg 82%
21:00 +13°C° 0 mm 2 mps 737 mmHg 84%
22:00 +12°C° 0 mm 2 mps 737 mmHg 86%
23:00 +12°C° 0 mm 2 mps 737 mmHg 88%

16 May, Sunday

Time Temperature Precipitation Wind Pressure Humidity
00:00 +10°C° 0 mm 2 mps 737 mmHg 89%
01:00 +10°C° 0 mm 2 mps 737 mmHg 90%
02:00 +10°C° 0 mm 2 mps 737 mmHg 91%
03:00 +9°C° 0 mm 2 mps 737 mmHg 92%
04:00 +9°C° 0 mm 2 mps 737 mmHg 93%
05:00 +9°C° 0 mm 2 mps 737 mmHg 94%
06:00 +11°C° 0 mm 3 mps 737 mmHg 88%
07:00 +12°C° 0 mm 3 mps 737 mmHg 82%
08:00 +14°C° 0 mm 4 mps 737 mmHg 76%
09:00 +17°C° 0 mm 4 mps 737 mmHg 71%
10:00 +17°C° 0 mm 5 mps 737 mmHg 66%
11:00 +19°C° 0 mm 5 mps 737 mmHg 62%
12:00 +19°C° 0.7 mm 5 mps 737 mmHg 67%
13:00 +17°C° 0.7 mm 5 mps 737 mmHg 72%
14:00 +17°C° 0.7 mm 5 mps 736 mmHg 77%
15:00 +16°C° 1.4 mm 5 mps 736 mmHg 82%
16:00 +14°C° 1.4 mm 4 mps 736 mmHg 88%
17:00 +13°C° 1.4 mm 3 mps 736 mmHg 93%
18:00 +13°C° 0.6 mm 3 mps 736 mmHg 94%
19:00 +13°C° 0.6 mm 3 mps 736 mmHg 95%
20:00 +13°C° 0.6 mm 2 mps 735 mmHg 96%
21:00 +13°C° 0.3 mm 2 mps 735 mmHg 96%
22:00 +13°C° 0.3 mm 2 mps 735 mmHg 96%
23:00 +13°C° 0.3 mm 1 mps 735 mmHg 96%

17 May, Monday

Time Temperature Precipitation Wind Pressure Humidity
00:00 +13°C° 0 mm 1 mps 735 mmHg 97%
01:00 +12°C° 0 mm 2 mps 735 mmHg 97%
02:00 +12°C° 0 mm 2 mps 735 mmHg 98%
03:00 +12°C° 0 mm 2 mps 735 mmHg 98%
04:00 +12°C° 0 mm 2 mps 735 mmHg 98%
05:00 +12°C° 0 mm 2 mps 736 mmHg 98%
06:00 +12°C° 0 mm 3 mps 736 mmHg 95%
07:00 +12°C° 0 mm 3 mps 736 mmHg 92%
08:00 +13°C° 0 mm 4 mps 737 mmHg 89%
09:00 +14°C° 0.1 mm 4 mps 737 mmHg 83%
10:00 +15°C° 0.1 mm 4 mps 737 mmHg 77%
11:00 +16°C° 0.1 mm 5 mps 737 mmHg 72%
12:00 +17°C° 0.1 mm 5 mps 737 mmHg 65%
13:00 +19°C° 0.1 mm 5 mps 737 mmHg 58%
14:00 +19°C° 0.1 mm 4 mps 737 mmHg 51%
15:00 +19°C° 0 mm 4 mps 737 mmHg 53%
16:00 +19°C° 0 mm 4 mps 737 mmHg 56%
17:00 +19°C° 0 mm 3 mps 737 mmHg 58%
18:00 +17°C° 0 mm 3 mps 737 mmHg 62%
19:00 +16°C° 0 mm 2 mps 737 mmHg 66%
20:00 +15°C° 0 mm 2 mps 737 mmHg 71%
21:00 +13°C° 0 mm 2 mps 737 mmHg 73%
22:00 +12°C° 0 mm 1 mps 738 mmHg 76%
23:00 +11°C° 0 mm 1 mps 738 mmHg 79%
Show more

We Need Your Consent

Meteoprog and our Service Providers may store and access personal data such as cookies, device identifiers or other similar technologies on your device and process such data to personalise content and ads, as well as provide social media features and to analyse the traffic.

  • Store and/or access information on your device

    Cookies, device identifiers or other information can be stored or accessed on your device for the purposes indicated above.

  • Personalised ads and content, ad and content measurement, audience insights, and products development

    Ads and content can be personalised based on a profile. More data can be added to better personalise ads and content. Ad and content performance can be measured. Insights about the audience who saw the ads and content can be derived. Such data can be used to develop or improve user’s experience, systems and software.

By clicking ‘I Agree’ you will allow the use of indicated cookies, device identifiers, web beacons or other similar technologies. Your settings can be changed in the browser on your device.

For certain purposes, legitimate interests may be relied on, rather than consent. You can read more about this in our Privacy and Cookie Policy.